Temp
12 12 12 12 12 12 12 12 12 12 12 11 11 11 11 11 11 11 11 11 10 11 11 11 11 10 10 11 11 10 10 11 11 11 11 11 11 11 11 11 11 11
12 13 12 12 12 12 12 12 12 12 12 11 11 11 11 11 11 11 11 11 10 10 11 11 11 11 11 11 11 11 11 11 11 11 11 11 11 11 11 11 11 11
13 13 13 12 12 12 12 12 12 12 12 12 11 11 11 11 11 11 11 11 11 10 11 11 11 11 11 11 11 11 11 11 11 11 11 11 11 11 11 11 11 11
13 13 13 13 12 12 12 12 12 12 12 12 12 11 11 11 11 11 11 11 11 11 11 11 11 11 11 11 11 11 11 11 11 11 11 11 11 11 11 11 11 11
13 13 13 13 13 12 12 12 12 12 12 12 12 11 11 11 11 11 11 11 11 11 11 11 11 11 11 11 11 11 11 11 11 11 11 11 11 11 11 11 11 11
13 13 13 13 13 12 12 12 12 12 12 12 12 12 11 11 11 11 12 12 11 11 11 11 11 12 12 12 12 11 11 11 11 11 11 11 11 11 11 11 11 11
13 13 13 13 13 13 13 12 12 12 12 12 12 12 12 11 11 12 12 12 12 12 12 11 11 11 12 12 12 11 11 11 11 11 11 11 11 11 12 12 12 11
14 13 13 13 13 13 13 13 12 12 12 12 12 12 12 12 12 12 12 12 12 12 12 12 12 12 12 12 12 12 11 11 11 11 11 11 11 11 11 12 12 12
14 14 13 13 13 13 13 13 13 13 12 12 12 12 12 12 12 12 12 12 12 12 12 12 12 12 12 12 12 12 12 12 12 12 12 11 11 11 11 11 12 12
14 14 14 13 13 13 13 13 13 13 13 13 12 12 12 12 12 12 12 12 12 12 12 12 12 12 12 12 12 12 12 12 12 12 12 12 12 11 11 11 11 12
14 14 14 14 14 14 14 13 13 13 13 13 13 13 13 13 12 12 12 12 12 12 12 12 12 12 12 12 12 12 12 12 12 12 12 12 12 12 11 11 12 12
14 14 14 14 14 14 14 14 13 13 13 13 13 13 13 13 13 12 12 12 12 12 12 12 12 12 12 12 12 12 12 12 12 12 12 12 12 12 12 12 12 12
14 14 14 14 14 14 14 14 14 13 13 13 13 13 13 13 13 13 13 12 12 12 12 12 12 12 12 13 12 13 13 13 13 13 13 13 12 12 12 12 12 12
14 14 14 14 14 14 14 14 14 14 13 13 13 13 13 13 13 13 13 13 13 13 12 12 12 12 12 13 13 13 13 13 13 13 13 13 13 13 12 12 12 12
14 14 14 14 14 14 14 14 14 14 14 13 13 13 13 13 13 13 13 13 13 13 13 13 13 13 13 13 13 13 13 13 13 13 13 13 13 13 13 13 13 13
14 14 14 14 14 14 14 14 14 14 14 14 13 13 13 13 13 13 13 13 13 13 13 13 13 13 13 13 13 13 13 13 13 13 13 13 13 13 13 13 13 13
14 14 14 14 14 14 14 14 14 14 14 14 14 14 13 13 13 13 13 13 13 13 13 13 13 13 13 13 13 13 13 13 13 13 13 13 13 13 13 13 13 13
14 14 14 14 14 14 14 14 14 14 14 14 14 14 14 14 14 14 14 14 14 14 14 14 14 14 13 13 13 13 13 13 13 13 13 13 13 13 13 13 13 13
15 15 14 14 14 14 14 14 14 14 14 14 14 14 14 14 14 14 14 14 14 14 14 14 14 14 14 14 14 14 13 13 14 14 13 13 13 13 13 13 13 13
15 15 15 15 14 14 14 14 14 15 15 15 14 14 14 14 14 14 14 14 15 15 15 14 14 14 14 14 14 14 14 14 14 14 14 13 13 13 13 13 13 13
15 15 15 15 15 15 15 15 15 15 15 15 15 15 15 15 15 15 15 15 15 15 15 15 15 14 14 14 14 14 14 14 14 14 13 13 13 13 13 13 13 13
16 16 15 15 15 15 15 15 15 15 15 15 15 15 15 15 15 15 15 15 15 15 15 15 15 15 14 14 14 14 14 14 14 14 13 13 13 13 13 14 14 14
16 16 16 16 16 16 16 15 15 15 15 15 15 15 15 15 15 15 15 15 15 15 16 16 15 15 15 15 14 14 14 14 14 13 13 13 13 14 14 14 14 14
16 16 16 16 16 16 16 16 16 15 15 15 15 15 15 15 15 15 15 15 15 15 16 16 16 15 15 15 14 14 14 14 14 14 14 14 14 14 14 14 14 14
16 16 16 16 16 16 16 16 16 15 15 15 15 15 15 15 15 15 15 15 15 15 15 16 16 15 15 15 14 14 14 14 14 14 14 14 14 14 14 14 15 15
17 17 17 16 16 16 16 16 15 15 15 15 15 15 15 15 15 15 15 15 15 15 15 15 15 15 15 15 14 14 14 14 14 14 14 14 14 14 14 15 15 15
Height
3190 3192 3195 3197 3199 3202 3204 3206 3208 3210 3212 3213 3215 3216 3218 3219 3220 3221 3222 3223 3224 3225 3225 3226 3228 3229 3230 3231 3232 3232 3233 3234 3234 3235 3235 3235 3236 3236 3237 3237 3238 3238
3188 3190 3193 3195 3197 3200 3202 3204 3206 3208 3210 3212 3213 3215 3216 3217 3218 3219 3220 3221 3222 3223 3224 3225 3226 3227 3229 3230 3231 3232 3232 3233 3234 3235 3235 3235 3236 3236 3237 3237 3238 3238
3186 3188 3191 3193 3196 3198 3200 3202 3204 3206 3208 3209 3211 3213 3214 3215 3216 3217 3219 3219 3221 3222 3223 3224 3225 3226 3227 3228 3230 3230 3231 3232 3233 3233 3234 3235 3235 3236 3236 3237 3237 3238
3184 3186 3189 3192 3195 3197 3199 3200 3202 3204 3206 3207 3209 3211 3212 3214 3215 3216 3217 3218 3219 3220 3221 3222 3223 3224 3226 3227 3228 3229 3230 3231 3232 3232 3233 3234 3235 3235 3236 3236 3237 3237
3183 3185 3188 3190 3193 3195 3196 3198 3200 3202 3204 3206 3208 3209 3210 3212 3213 3214 3215 3216 3217 3218 3220 3221 3222 3223 3224 3225 3227 3228 3229 3230 3230 3231 3232 3233 3234 3234 3235 3235 3236 3237
3181 3183 3185 3188 3190 3193 3194 3196 3199 3200 3202 3204 3206 3207 3209 3210 3211 3212 3214 3215 3216 3217 3218 3220 3221 3222 3223 3224 3225 3226 3227 3228 3229 3230 3231 3231 3232 3233 3234 3234 3235 3236
3179 3181 3184 3186 3188 3190 3192 3195 3197 3198 3200 3202 3204 3205 3207 3208 3210 3211 3212 3214 3215 3216 3217 3218 3220 3221 3222 3223 3224 3225 3226 3227 3227 3228 3229 3230 3231 3231 3232 3233 3234 3235
3177 3180 3182 3184 3186 3188 3190 3192 3194 3197 3199 3200 3201 3203 3205 3207 3208 3210 3211 3212 3213 3215 3215 3217 3218 3219 3221 3221 3222 3223 3224 3225 3226 3227 3228 3229 3229 3230 3231 3232 3233 3233
3175 3177 3180 3181 3183 3185 3188 3190 3193 3195 3196 3198 3200 3201 3203 3205 3207 3208 3209 3210 3212 3213 3214 3215 3217 3218 3219 3220 3221 3222 3223 3224 3225 3226 3227 3228 3228 3229 3230 3230 3231 3232
3173 3175 3177 3179 3181 3183 3186 3188 3191 3193 3194 3196 3198 3199 3201 3203 3205 3206 3207 3208 3210 3212 3213 3214 3216 3217 3218 3219 3220 3221 3223 3223 3224 3225 3226 3227 3227 3228 3228 3229 3229 3230
3170 3173 3175 3176 3179 3181 3183 3186 3188 3190 3192 3194 3196 3197 3199 3201 3202 3204 3205 3206 3208 3210 3212 3213 3215 3216 3217 3218 3219 3220 3222 3223 3223 3224 3225 3226 3226 3227 3227 3228 3228 3229
3168 3170 3172 3175 3177 3179 3181 3184 3186 3188 3190 3192 3194 3195 3197 3199 3200 3202 3203 3205 3207 3208 3210 3212 3213 3214 3215 3217 3218 3219 3220 3221 3222 3223 3224 3224 3225 3226 3226 3227 3227 3228
3167 3169 3171 3173 3175 3177 3180 3182 3184 3186 3188 3190 3192 3193 3195 3196 3198 3200 3201 3203 3205 3207 3208 3210 3211 3212 3213 3215 3216 3217 3218 3219 3220 3221 3222 3223 3224 3224 3225 3226 3226 3226
3165 3168 3170 3172 3174 3176 3178 3179 3181 3183 3185 3188 3190 3191 3193 3195 3196 3198 3200 3201 3203 3204 3206 3207 3208 3209 3211 3212 3214 3215 3216 3217 3219 3219 3220 3221 3222 3222 3223 3224 3224 3225
3164 3166 3168 3170 3172 3174 3176 3177 3179 3181 3183 3185 3187 3189 3191 3193 3195 3196 3197 3199 3200 3202 3204 3205 3205 3207 3208 3210 3212 3213 3214 3216 3217 3218 3218 3219 3220 3220 3221 3221 3222 3222
3162 3164 3166 3168 3170 3172 3174 3175 3177 3179 3180 3182 3184 3186 3188 3191 3192 3194 3195 3196 3198 3199 3201 3202 3203 3204 3206 3208 3210 3211 3213 3214 3215 3216 3216 3217 3218 3218 3219 3219 3219 3220
3160 3162 3164 3166 3167 3169 3171 3173 3175 3176 3178 3180 3181 3183 3186 3188 3190 3191 3193 3194 3196 3197 3198 3199 3200 3202 3204 3206 3208 3209 3211 3212 3212 3213 3214 3215 3215 3216 3216 3217 3217 3216
3159 3160 3162 3164 3166 3167 3169 3171 3173 3174 3175 3177 3178 3180 3183 3185 3186 3188 3190 3192 3193 3194 3196 3196 3198 3200 3202 3204 3206 3207 3209 3209 3210 3211 3211 3212 3213 3213 3214 3214 3214 3214
3157 3158 3160 3162 3164 3166 3168 3169 3170 3171 3173 3174 3176 3178 3180 3181 3183 3185 3187 3189 3190 3191 3193 3194 3195 3198 3200 3201 3203 3205 3206 3207 3207 3208 3208 3209 3210 3210 3211 3211 3211 3211
3154 3156 3158 3160 3162 3164 3165 3166 3168 3169 3171 3172 3174 3175 3177 3178 3181 3183 3184 3186 3187 3189 3190 3191 3193 3195 3197 3199 3200 3202 3203 3204 3204 3205 3205 3206 3206 3207 3207 3208 3208 3208
3152 3154 3155 3157 3160 3161 3163 3164 3165 3167 3169 3170 3171 3173 3174 3176 3178 3180 3182 3183 3185 3186 3187 3188 3190 3193 3194 3196 3197 3199 3200 3200 3201 3201 3202 3202 3203 3204 3205 3205 3205 3205
3149 3151 3153 3155 3157 3158 3160 3162 3163 3165 3167 3168 3169 3171 3172 3174 3175 3177 3179 3181 3182 3183 3184 3185 3188 3190 3191 3193 3195 3196 3197 3197 3197 3198 3198 3199 3200 3201 3202 3202 3202 3202
3147 3148 3150 3152 3154 3155 3157 3159 3161 3163 3165 3166 3167 3168 3170 3171 3173 3175 3177 3178 3179 3181 3182 3183 3185 3187 3189 3190 3192 3193 3193 3193 3194 3195 3195 3196 3197 3198 3198 3198 3199 3199
3144 3146 3148 3149 3151 3152 3154 3156 3158 3160 3162 3163 3164 3166 3167 3169 3171 3172 3174 3175 3176 3178 3179 3180 3182 3184 3186 3187 3188 3190 3190 3190 3191 3191 3192 3192 3193 3194 3194 3195 3195 3195
3142 3143 3145 3147 3148 3150 3151 3153 3155 3156 3158 3160 3161 3163 3164 3166 3168 3169 3170 3172 3174 3175 3176 3177 3178 3181 3182 3183 3185 3186 3187 3187 3188 3188 3188 3189 3189 3190 3190 3191 3191 3191
3139 3141 3142 3144 3146 3147 3149 3150 3151 3153 3155 3156 3158 3159 3161 3162 3164 3165 3167 3169 3170 3171 3173 3174 3175 3177 3179 3180 3181 3182 3183 3184 3184 3184 3184 3185 3186 3186 3186 3187 3187 3188
Wind_Speed
26 26 25 25 25 24 23 21 19 18 18 17 17 16 16 15 15 16 15 14 14 15 17 17 16 15 14 14 14 14 13 13 12 12 11 10 9 8 7 7 6 5
28 27 26 26 26 25 24 22 20 20 19 18 17 17 16 16 16 16 16 16 16 16 17 18 18 18 16 15 15 15 14 13 13 12 11 11 10 9 9 8 7 6
29 28 27 27 26 25 24 23 22 21 21 20 19 18 18 17 17 17 18 18 17 17 18 20 20 19 18 17 16 15 15 14 13 13 12 12 11 11 10 9 8 8
30 29 28 27 26 25 25 24 24 22 22 21 20 19 19 19 19 19 19 19 19 19 19 21 21 20 19 18 17 16 15 15 15 14 13 13 12 12 11 11 10 9
31 30 28 27 27 26 26 26 25 24 23 21 20 19 19 20 20 20 19 19 20 20 20 21 21 20 19 17 16 15 15 15 15 15 14 14 13 13 13 12 11 10
31 31 29 28 28 27 27 27 26 25 24 22 21 20 20 20 20 20 19 17 18 19 19 19 19 19 18 16 15 14 14 14 15 15 15 15 15 15 15 14 13 12
31 31 30 29 29 29 28 27 26 26 25 24 23 22 21 21 20 20 18 15 15 17 17 17 17 17 17 16 15 15 15 15 16 16 16 16 16 17 17 15 14 14
31 31 30 29 29 29 28 28 27 26 26 25 25 23 22 21 20 19 18 15 14 15 16 16 16 16 17 17 16 16 16 16 16 15 15 15 16 16 16 16 16 15
32 31 31 30 30 30 29 28 27 27 26 26 25 24 23 22 21 21 20 17 16 15 15 15 15 16 16 16 16 15 15 14 13 13 12 13 14 14 14 15 16 16
33 32 32 31 30 29 29 28 27 27 27 26 25 24 24 23 22 22 22 20 19 17 16 15 15 16 16 16 15 14 13 12 11 10 10 10 10 11 12 13 14 15
33 33 33 32 31 29 28 27 27 27 26 26 25 24 24 23 24 24 24 23 21 19 18 17 17 17 17 16 15 14 12 11 10 10 9 9 9 10 10 11 11 11
34 34 33 32 31 30 28 27 27 27 26 25 25 24 23 23 24 25 25 25 23 21 19 18 18 18 18 17 16 14 13 12 11 10 10 10 10 10 10 10 10 10
33 33 33 32 31 30 28 28 28 27 27 26 25 24 24 24 24 24 25 25 24 23 22 20 20 20 19 18 17 16 14 13 12 11 10 10 10 10 11 11 11 11
30 31 32 32 31 30 29 29 28 28 27 26 25 25 24 24 23 23 23 24 25 25 23 22 23 23 22 20 19 17 15 14 12 12 11 11 11 11 12 12 12 12
28 28 30 30 30 31 30 29 29 28 28 27 26 26 25 24 23 23 23 24 24 25 25 25 25 24 23 22 20 19 17 15 15 14 14 13 13 14 14 14 14 14
24 26 28 29 30 30 30 30 29 29 28 28 27 26 25 24 24 24 24 24 24 25 26 26 26 25 24 23 21 20 18 18 17 16 16 16 16 17 17 17 16 17
21 23 25 27 28 29 29 30 30 30 29 29 28 27 26 25 25 25 25 24 25 25 26 27 27 26 25 24 22 21 20 19 18 17 18 18 18 18 17 17 18 18
22 22 22 23 25 26 27 28 29 29 29 29 28 28 27 27 27 26 25 25 25 26 27 27 27 26 25 24 22 21 20 19 19 18 18 18 17 17 16 16 17 17
27 25 24 23 23 23 24 25 27 27 28 27 27 27 27 28 28 27 26 25 26 26 26 27 26 25 25 23 22 21 20 20 19 19 19 18 17 17 16 15 15 16
30 29 27 25 24 23 23 23 24 25 25 25 26 26 27 27 27 27 26 26 25 25 25 26 26 25 24 23 22 21 20 20 21 20 21 20 19 18 17 16 16 17
30 30 29 28 27 26 25 24 23 23 23 23 24 25 25 25 26 26 26 25 24 24 24 25 24 24 23 23 21 20 20 21 22 22 23 22 21 19 18 18 19 20
29 30 30 30 30 29 28 27 25 24 23 23 23 23 24 24 25 25 25 24 24 24 25 25 24 23 23 22 21 21 21 23 24 24 24 24 22 20 20 20 21 23
27 29 30 30 30 30 30 30 29 27 26 25 24 24 23 23 24 24 24 24 25 25 25 25 25 24 24 23 22 23 24 25 26 25 26 25 24 22 23 23 24 25
25 27 28 29 31 31 32 32 31 31 30 29 28 27 25 25 24 24 24 25 25 25 25 26 26 25 25 25 24 25 26 27 27 27 27 26 25 25 25 26 25 25
22 24 25 27 29 30 31 32 33 33 33 32 32 31 29 28 27 27 26 25 25 25 26 28 28 27 27 27 27 27 27 27 28 28 28 28 27 27 27 27 26 26
21 21 22 23 24 26 28 30 31 32 33 34 35 34 34 33 32 30 29 28 27 27 27 29 29 28 28 29 29 29 29 29 30 30 30 30 30 30 29 28 27 27
Wind_Direction
199 201 202 204 205 206 207 207 206 205 207 213 220 227 231 231 230 232 233 233 229 223 222 223 221 219 215 209 205 204 205 204 201 199 198 195 188 179 172 168 162 151
201 203 204 205 206 208 210 210 209 206 206 209 214 220 225 228 227 226 228 229 228 224 223 223 223 221 217 212 209 206 206 210 210 205 202 202 200 195 190 185 181 174
202 204 207 208 208 209 211 212 213 210 207 207 210 215 221 226 227 226 225 226 227 224 223 224 224 223 220 216 214 210 208 210 213 211 206 206 206 205 203 200 194 191
203 205 207 209 210 210 210 212 215 214 211 209 208 212 217 223 226 227 225 226 227 226 223 222 223 223 221 218 216 214 210 210 213 214 212 211 210 209 212 211 205 203
205 206 208 210 211 211 211 212 213 216 216 213 211 213 216 221 225 227 227 227 229 229 226 222 222 222 222 218 215 212 210 209 212 216 216 217 217 215 216 216 214 213
207 207 208 210 212 213 213 212 212 215 217 216 215 215 217 221 225 228 229 228 230 232 230 224 220 220 221 220 215 210 208 208 210 214 215 218 222 221 219 217 215 217
209 209 210 211 213 215 214 213 212 214 216 216 216 216 217 220 225 229 230 229 228 229 228 222 218 216 218 219 217 212 209 208 210 212 212 214 220 223 223 221 217 217
211 210 211 213 214 216 215 214 214 214 215 216 216 216 215 217 221 226 229 227 224 223 220 217 213 210 212 214 213 212 211 210 212 214 214 216 220 224 227 229 226 223
212 211 212 213 215 217 217 216 215 215 215 217 217 216 215 214 216 220 224 224 220 216 212 208 204 202 202 202 201 202 204 204 206 209 212 217 221 224 228 232 234 232
212 213 213 215 216 217 218 217 217 216 217 217 217 218 216 213 213 216 220 220 217 213 208 202 197 194 192 189 187 190 192 193 196 199 202 210 216 221 227 233 237 238
213 213 214 216 217 218 218 218 218 218 217 217 217 219 218 215 214 214 217 219 217 214 209 203 197 194 193 190 189 194 198 201 206 207 208 212 216 221 229 236 240 241
214 214 215 217 218 218 218 217 218 217 217 217 217 219 219 218 217 215 217 218 218 216 214 209 206 203 200 198 200 206 210 214 221 224 226 228 229 232 237 243 246 247
216 216 217 218 219 219 218 218 218 218 217 217 217 218 220 220 220 219 218 219 218 218 217 215 215 213 211 210 213 218 222 226 232 237 241 243 244 246 248 250 253 253
218 219 219 220 220 220 220 220 220 219 218 218 218 219 220 221 222 221 221 220 219 220 219 218 219 218 217 218 222 226 231 235 240 246 251 254 256 257 258 258 258 258
219 220 221 222 221 222 222 223 223 222 221 220 220 221 221 221 222 222 222 221 220 220 220 220 220 219 218 220 224 230 236 241 246 251 256 261 264 266 266 265 265 264
218 220 221 222 223 223 224 225 226 225 225 224 224 225 224 224 224 223 222 221 220 220 220 220 220 219 218 220 225 231 237 243 248 254 259 264 267 268 270 271 271 270
216 219 221 222 223 223 224 225 227 228 228 228 229 229 228 228 228 227 225 223 221 221 220 221 221 219 219 221 225 230 236 242 249 255 261 265 267 268 269 270 269 268
217 218 220 222 223 223 224 225 227 228 229 229 230 231 231 232 232 231 229 226 225 224 223 223 223 222 222 224 226 230 236 244 251 257 262 265 266 266 264 262 261 261
221 221 222 223 223 224 225 226 227 228 228 229 229 230 231 232 234 234 232 230 230 228 226 227 227 226 227 229 230 233 238 246 253 258 262 263 261 259 256 255 256 259
225 225 225 225 226 226 226 226 227 228 229 229 229 230 231 231 233 234 234 233 232 231 230 230 229 228 230 231 233 235 240 247 253 256 256 255 253 251 252 256 261 266
226 228 228 228 228 227 227 227 228 228 229 230 231 232 232 233 233 233 234 234 234 234 233 231 230 230 230 232 234 237 241 245 247 249 249 248 248 250 255 263 269 273
224 227 228 229 229 229 229 229 229 229 229 231 233 234 234 235 235 234 234 233 233 235 235 232 230 232 233 234 235 237 239 240 240 243 245 247 249 253 261 268 272 275
222 225 228 230 230 231 231 231 232 231 231 232 234 234 235 235 236 236 236 234 233 234 234 233 233 235 237 237 236 234 234 234 237 241 245 249 252 257 264 270 274 276
221 225 228 230 231 232 233 233 234 234 233 234 234 235 235 235 237 238 237 236 234 233 233 234 235 236 238 237 234 230 231 234 239 243 247 252 257 262 268 273 275 276
221 223 225 228 230 232 234 235 236 235 235 235 235 236 236 236 236 236 236 235 234 232 232 234 235 235 236 234 231 229 232 237 243 247 251 255 261 266 270 273 274 276
221 220 222 224 227 230 232 234 235 236 237 237 237 237 237 237 237 236 235 235 234 232 232 233 234 235 233 232 231 232 235 240 245 249 253 258 262 267 270 272 273 276